When you browse on this site, cookies collect data to enhance your experience and personalize the content and advertising you see.
Visit our Privacy Policy to learn more. By continuing to use the site, you agree to this use of cookies and data.
  • In Spain
  • List of Countries
  • For 7 days
  • Water Temperature
  • Weather Map
  • Weather Widgets
  • user-avatar
    Login

    Hourly Weather Sacapa

    Today, 29 February, Saturday

    Time Temperature Precipitation Wind Pressure Humidity
    00:00 +16°C° 0 mm 2 mps 702 mmHg 92%
    01:00 +16°C° 0.1 mm 2 mps 702 mmHg 93%
    02:00 +16°C° 0.1 mm 2 mps 701 mmHg 93%
    03:00 +16°C° 0.1 mm 2 mps 701 mmHg 94%
    04:00 +16°C° 0.1 mm 2 mps 701 mmHg 95%
    05:00 +16°C° 0.1 mm 2 mps 701 mmHg 95%
    06:00 +16°C° 0.1 mm 2 mps 701 mmHg 96%
    07:00 +17°C° 0 mm 2 mps 702 mmHg 92%
    08:00 +17°C° 0 mm 2 mps 702 mmHg 89%
    09:00 +18°C° 0 mm 2 mps 703 mmHg 85%
    10:00 +19°C° 0 mm 2 mps 703 mmHg 80%
    11:00 +20°C° 0 mm 3 mps 702 mmHg 75%
    12:00 +21°C° 0 mm 3 mps 702 mmHg 70%
    13:00 +22°C° 0 mm 3 mps 701 mmHg 67%
    14:00 +22°C° 0 mm 3 mps 701 mmHg 64%
    15:00 +22°C° 0 mm 3 mps 700 mmHg 61%
    16:00 +21°C° 0 mm 3 mps 700 mmHg 67%
    17:00 +20°C° 0 mm 2 mps 700 mmHg 72%
    18:00 +18°C° 0 mm 2 mps 700 mmHg 78%
    19:00 +18°C° 0 mm 1 mps 700 mmHg 83%
    20:00 +16°C° 0 mm 1 mps 700 mmHg 88%
    21:00 +15°C° 0 mm 1 mps 701 mmHg 94%
    22:00 +15°C° 0 mm 1 mps 700 mmHg 94%
    23:00 +15°C° 0 mm 1 mps 700 mmHg 94%

    Tomorrow, 1 March, Sunday

    Time Temperature Precipitation Wind Pressure Humidity
    00:00 +15°C° 0 mm 1 mps 700 mmHg 94%
    01:00 +15°C° 0 mm 1 mps 700 mmHg 92%
    02:00 +15°C° 0 mm 1 mps 699 mmHg 91%
    03:00 +16°C° 0 mm 1 mps 699 mmHg 89%
    04:00 +16°C° 0 mm 1 mps 699 mmHg 91%
    05:00 +15°C° 0 mm 1 mps 699 mmHg 92%
    06:00 +14°C° 0 mm 0 mps 700 mmHg 94%
    07:00 +18°C° 0 mm 1 mps 700 mmHg 86%
    08:00 +20°C° 0 mm 1 mps 700 mmHg 78%
    09:00 +22°C° 0 mm 1 mps 701 mmHg 70%
    10:00 +24°C° 0 mm 1 mps 701 mmHg 64%
    11:00 +25°C° 0 mm 2 mps 700 mmHg 57%
    12:00 +27°C° 0 mm 2 mps 700 mmHg 51%
    13:00 +27°C° 0 mm 2 mps 699 mmHg 52%
    14:00 +27°C° 0 mm 3 mps 698 mmHg 52%
    15:00 +28°C° 0 mm 3 mps 698 mmHg 52%
    16:00 +26°C° 0 mm 2 mps 697 mmHg 62%
    17:00 +24°C° 0 mm 2 mps 697 mmHg 71%
    18:00 +21°C° 0 mm 2 mps 697 mmHg 80%
    19:00 +20°C° 0 mm 2 mps 697 mmHg 86%
    20:00 +20°C° 0 mm 1 mps 698 mmHg 91%
    21:00 +19°C° 0 mm 1 mps 698 mmHg 97%
    22:00 +19°C° 0 mm 1 mps 698 mmHg 97%
    23:00 +19°C° 0 mm 1 mps 698 mmHg 97%

    Day after tomorrow, 2 March, Monday

    Time Temperature Precipitation Wind Pressure Humidity
    00:00 +19°C° 0 mm 1 mps 698 mmHg 97%
    01:00 +16°C° 0 mm 0 mps 697 mmHg 97%
    02:00 +16°C° 0 mm 0 mps 697 mmHg 97%
    03:00 +16°C° 0 mm 0 mps 697 mmHg 97%
    04:00 +16°C° 0 mm 0 mps 697 mmHg 97%
    05:00 +15°C° 0 mm 0 mps 697 mmHg 97%
    06:00 +15°C° 0 mm 0 mps 697 mmHg 96%
    07:00 +18°C° 0 mm 0 mps 697 mmHg 86%
    08:00 +20°C° 0 mm 0 mps 698 mmHg 76%
    09:00 +23°C° 0 mm 0 mps 698 mmHg 66%
    10:00 +26°C° 0 mm 0 mps 698 mmHg 57%
    11:00 +29°C° 0 mm 0 mps 698 mmHg 48%
    12:00 +34°C° 0 mm 1 mps 698 mmHg 39%
    13:00 +34°C° 0 mm 1 mps 697 mmHg 38%
    14:00 +34°C° 0 mm 1 mps 696 mmHg 36%
    15:00 +34°C° 0 mm 1 mps 695 mmHg 34%
    16:00 +32°C° 0 mm 1 mps 695 mmHg 45%
    17:00 +29°C° 0 mm 2 mps 695 mmHg 56%
    18:00 +26°C° 0 mm 2 mps 695 mmHg 67%
    19:00 +25°C° 0 mm 1 mps 695 mmHg 76%
    20:00 +23°C° 0 mm 1 mps 695 mmHg 86%
    21:00 +21°C° 0 mm 1 mps 696 mmHg 95%
    22:00 +19°C° 0 mm 0 mps 696 mmHg 95%
    23:00 +19°C° 0 mm 0 mps 696 mmHg 95%

    3 March, Tuesday

    Time Temperature Precipitation Wind Pressure Humidity
    00:00 +19°C° 0 mm 0 mps 696 mmHg 95%
    01:00 +19°C° 0 mm 0 mps 695 mmHg 95%
    02:00 +21°C° 0 mm 1 mps 695 mmHg 94%
    03:00 +20°C° 0 mm 1 mps 694 mmHg 94%
    04:00 +20°C° 0 mm 1 mps 694 mmHg 93%
    05:00 +20°C° 0 mm 1 mps 695 mmHg 91%
    06:00 +20°C° 0 mm 1 mps 695 mmHg 90%
    07:00 +23°C° 0 mm 1 mps 696 mmHg 78%
    08:00 +25°C° 0 mm 2 mps 697 mmHg 66%
    09:00 +28°C° 0 mm 2 mps 698 mmHg 54%
    10:00 +30°C° 0 mm 2 mps 697 mmHg 47%
    11:00 +32°C° 0 mm 2 mps 697 mmHg 40%
    12:00 +35°C° 0 mm 3 mps 697 mmHg 33%
    13:00 +35°C° 0 mm 3 mps 696 mmHg 32%
    14:00 +35°C° 0 mm 3 mps 695 mmHg 30%
    15:00 +36°C° 0 mm 3 mps 694 mmHg 28%
    16:00 +34°C° 0 mm 2 mps 694 mmHg 35%
    17:00 +30°C° 0 mm 1 mps 694 mmHg 42%
    18:00 +28°C° 0 mm 1 mps 694 mmHg 48%
    19:00 +27°C° 0 mm 1 mps 695 mmHg 55%
    20:00 +25°C° 0 mm 1 mps 695 mmHg 62%
    21:00 +24°C° 0 mm 1 mps 695 mmHg 69%
    22:00 +23°C° 0 mm 1 mps 695 mmHg 72%
    23:00 +23°C° 0 mm 1 mps 695 mmHg 76%

    4 March, Wednesday

    Time Temperature Precipitation Wind Pressure Humidity
    00:00 +22°C° 0 mm 1 mps 695 mmHg 79%
    01:00 +21°C° 0 mm 2 mps 695 mmHg 81%
    02:00 +20°C° 0 mm 2 mps 695 mmHg 83%
    03:00 +20°C° 0 mm 2 mps 695 mmHg 84%
    04:00 +20°C° 0 mm 2 mps 695 mmHg 84%
    05:00 +20°C° 0 mm 2 mps 695 mmHg 84%
    06:00 +19°C° 0 mm 2 mps 696 mmHg 84%
    07:00 +23°C° 0 mm 2 mps 697 mmHg 74%
    08:00 +25°C° 0 mm 2 mps 697 mmHg 64%
    09:00 +28°C° 0 mm 2 mps 698 mmHg 54%
    10:00 +30°C° 0 mm 1 mps 698 mmHg 46%
    11:00 +33°C° 0 mm 1 mps 698 mmHg 39%
    12:00 +35°C° 0 mm 1 mps 698 mmHg 31%
    13:00 +36°C° 0 mm 1 mps 698 mmHg 30%
    14:00 +37°C° 0 mm 2 mps 697 mmHg 28%
    15:00 +37°C° 0 mm 2 mps 696 mmHg 27%
    16:00 +35°C° 0 mm 2 mps 697 mmHg 36%
    17:00 +31°C° 0 mm 2 mps 697 mmHg 45%
    18:00 +28°C° 0 mm 2 mps 697 mmHg 54%
    19:00 +27°C° 0.1 mm 2 mps 698 mmHg 63%
    20:00 +25°C° 0.1 mm 2 mps 698 mmHg 72%
    21:00 +24°C° 0.1 mm 2 mps 699 mmHg 81%
    22:00 +23°C° 0.1 mm 2 mps 699 mmHg 84%
    23:00 +21°C° 0.1 mm 2 mps 699 mmHg 87%

    5 March, Thursday

    Time Temperature Precipitation Wind Pressure Humidity
    00:00 +20°C° 0.1 mm 2 mps 700 mmHg 90%
    01:00 +19°C° 0.1 mm 2 mps 700 mmHg 90%
    02:00 +19°C° 0.1 mm 2 mps 699 mmHg 89%
    03:00 +18°C° 0.1 mm 2 mps 699 mmHg 88%
    04:00 +17°C° 0 mm 2 mps 700 mmHg 88%
    05:00 +17°C° 0 mm 2 mps 700 mmHg 87%
    06:00 +16°C° 0 mm 2 mps 700 mmHg 87%
    07:00 +18°C° 0 mm 2 mps 701 mmHg 79%
    08:00 +19°C° 0 mm 2 mps 702 mmHg 72%
    09:00 +20°C° 0 mm 3 mps 702 mmHg 64%
    10:00 +21°C° 0 mm 3 mps 702 mmHg 59%
    11:00 +22°C° 0 mm 3 mps 702 mmHg 54%
    12:00 +24°C° 0 mm 3 mps 702 mmHg 50%
    13:00 +24°C° 0 mm 3 mps 701 mmHg 51%
    14:00 +24°C° 0 mm 3 mps 701 mmHg 53%
    15:00 +24°C° 0 mm 3 mps 700 mmHg 54%
    16:00 +21°C° 0 mm 3 mps 700 mmHg 60%
    17:00 +20°C° 0 mm 2 mps 700 mmHg 66%
    18:00 +19°C° 0 mm 2 mps 700 mmHg 72%
    19:00 +18°C° 0 mm 2 mps 701 mmHg 77%
    20:00 +17°C° 0 mm 2 mps 701 mmHg 82%
    21:00 +16°C° 0 mm 1 mps 701 mmHg 88%
    22:00 +15°C° 0 mm 1 mps 701 mmHg 89%
    23:00 +15°C° 0 mm 1 mps 701 mmHg 91%
    Show more